Tracking 31027 objects as of 19-Jul-2025
HD Live streaming from Space Station
objects crossing your sky now

COSMOS 839 DEB

Track COSMOS 839 DEB now!
10-day predictions


NORAD ID: 10621
Int'l Code: 1976-067AV
Perigee: 1,021.9 km
Apogee: 2,081.5 km
Inclination: 66.0 °
Period: 117.0 minutes
Semi major axis: 7922 km
RCS: 0.3133 m2 (medium)
Launch date: July 8, 1976
Source: Commonwealth of Independent States (former USSR) (CIS)
Launch site: PLESETSK MISSILE AND SPACE COMPLEX (PKMTR)

Note: This is SATELLITE DEBRIS
Your satellite tracking list
SL-8 R/B
Track 1 satellite(s)




NASA's NSSDC Master Catalog

Two Line Element Set (TLE):
1 10621U 76067AV  25199.81625229 -.00000012  00000-0  16640-3 0  9991
2 10621  66.0226 227.3694 0668741 354.4134 177.7776 12.31094474203128
Source of the keplerian elements: AFSPC